Zurück zum Katalog

STARLINK-35262

AktivKommunikationVLEO
NORAD 65847·PAYLOAD·🇺🇸 United States

Gestartet Sep 29, 2025 von Vandenberg Space Force Base

Loading…

Nächste Überflüge (nächste 24 Stunden)

TLE

AktuellSource: CelesTrak SupGP

Epoche: Sep 14, 2026, 15:05 UTC

1 65847C 25221AA  26257.62895833  .00012218  00000+0  36108-3 0  2579
2 65847  53.1571 289.1163 0001187  81.2559 284.3814 15.34376025    18

Verfolge STARLINK-35262 in Echtzeit mit AllMySat

Download on the App Store